Greensboro, NC

5:32 AM EDT on April 26, 2018 (GMT -0400)
Piedmont Triad International

Weather History for KGSO - September, 2014

Change the Weather History Date:

Tuesday, September 9, 2014

  Actual Average Record
Temperature  
Mean Temperature 70 °F 73 °F  
Max Temperature 78 °F 82 °F 99 °F (1939)
Min Temperature 62 °F 63 °F 47 °F (1951)
Degree Days  
Heating Degree Days 0 0  
Month to date heating degree days 0 0  
Since 1 July heating degree days 0 1  
Cooling Degree Days 5 8  
Month to date cooling degree days 109 80  
Year to date cooling degree days 1362 1342  
Growing Degree Days 20 (Base 50)    
Moisture  
Dew Point 64 °F    
Average Humidity 82    
Maximum Humidity 100    
Minimum Humidity 64    
Precipitation  
Precipitation T in 0.16 in 1.40 in (1988)
Month to date precipitation 1.98 1.37  
Year to date precipitation 27.86 30.16  
Sea Level Pressure  
Sea Level Pressure 30.11 in    
Wind  
Wind Speed 6 mph (NNE)    
Max Wind Speed 14 mph    
Max Gust Speed 18 mph    
Visibility 7 miles    
Events Rain    
T = Trace of Precipitation, MM = Missing Value Source: NWS Daily Summary

Daily Weather History Graph

Daily Weather History Graph

Search for Another Location

Airport or City:

Astronomy

Sep. 09, 2014 Rise Set
Actual Time 6:57 AM EDT 7:35 PM EDT
Civil Twilight 6:31 AM EDT 8:01 PM EDT
Nautical Twilight 6:01 AM EDT 8:32 PM EDT
Astronomical Twilight 5:29 AM EDT 9:03 PM EDT
Moon 7:57 PM EDT (9/9) 7:30 AM EDT (9/9)
Length of Visible Light 13h 30m
Length of Day
12h 38m
Waxing Gibbous, 99% of the Moon is Illuminated
Sep 9
Waxing Gibbous
Sep 15
Last Quarter
Sep 24
New
Oct 1
First Quarter
Oct 8
Full

Hourly Weather History & Observations

Time (EDT) Temp. Dew Point Humidity Pressure Visibility Wind Dir Wind Speed Gust Speed Precip Events Conditions
12:03 AM 66.2 °F 64.4 °F 94% 30.12 in 3.0 mi NE 11.5 mph - N/A   Overcast
12:54 AM 64.9 °F 64.0 °F 97% 30.10 in 4.0 mi NNE 9.2 mph - N/A   Overcast
1:54 AM 64.0 °F 63.0 °F 96% 30.10 in 4.0 mi North 8.1 mph - 0.00 in   Light Drizzle
2:54 AM 63.0 °F 62.1 °F 97% 30.09 in 6.0 mi North 9.2 mph - 0.00 in   Light Drizzle
3:54 AM 63.0 °F 62.1 °F 97% 30.08 in 5.0 mi NNE 9.2 mph 16.1 mph 0.00 in   Light Drizzle
4:20 AM 62.6 °F 62.6 °F 100% 30.11 in 2.5 mi North 8.1 mph - 0.00 in   Overcast
4:54 AM 63.0 °F 62.1 °F 97% 30.09 in 3.0 mi North 8.1 mph - 0.00 in   Overcast
5:54 AM 63.0 °F 62.1 °F 97% 30.10 in 3.0 mi North 4.6 mph - N/A   Overcast
6:54 AM 63.0 °F 62.1 °F 97% 30.12 in 6.0 mi North 4.6 mph - N/A   Overcast
7:27 AM 62.6 °F 62.6 °F 100% 30.13 in 2.0 mi NNE 9.2 mph - 0.00 in   Light Drizzle
7:54 AM 63.0 °F 62.1 °F 97% 30.12 in 2.5 mi NNE 8.1 mph - 0.00 in   Overcast
8:09 AM 62.6 °F 62.6 °F 100% 30.14 in 5.0 mi North 5.8 mph - N/A   Overcast
8:54 AM 63.0 °F 62.1 °F 97% 30.13 in 8.0 mi NNE 8.1 mph 16.1 mph N/A   Overcast
9:54 AM 64.9 °F 63.0 °F 93% 30.14 in 8.0 mi North 8.1 mph - N/A   Overcast
10:02 AM 64.4 °F 62.6 °F 94% 30.17 in 4.0 mi North 5.8 mph - N/A   Light Drizzle
10:54 AM 66.9 °F 64.0 °F 90% 30.13 in 7.0 mi NE 9.2 mph - 0.00 in   Overcast
11:54 AM 70.0 °F 64.9 °F 84% 30.14 in 10.0 mi NE 6.9 mph - N/A   Overcast
12:10 PM 71.6 °F 64.4 °F 78% 30.16 in 10.0 mi NNE 6.9 mph - N/A   Overcast
12:54 PM 73.9 °F 66.0 °F 76% 30.12 in 10.0 mi NNE 9.2 mph - N/A   Mostly Cloudy
1:11 PM 73.4 °F 66.2 °F 78% 30.14 in 10.0 mi NNE 5.8 mph - N/A   Mostly Cloudy
1:54 PM 73.9 °F 66.0 °F 76% 30.12 in 10.0 mi North 4.6 mph - N/A   Mostly Cloudy
2:54 PM 73.9 °F 66.0 °F 76% 30.10 in 10.0 mi ENE 9.2 mph - N/A   Mostly Cloudy
3:54 PM 75.9 °F 66.0 °F 71% 30.08 in 10.0 mi NE 3.5 mph - N/A   Mostly Cloudy
4:54 PM 77.0 °F 64.4 °F 65% 30.10 in 10.0 mi NE 9.2 mph - N/A   Mostly Cloudy
5:54 PM 75.0 °F 66.0 °F 73% 30.07 in 10.0 mi ENE 9.2 mph - N/A   Mostly Cloudy
6:54 PM 73.0 °F 66.9 °F 81% 30.08 in 10.0 mi NE 4.6 mph - N/A   Overcast
7:54 PM 72.0 °F 66.9 °F 84% 30.08 in 10.0 mi Calm Calm - N/A   Overcast
8:54 PM 71.1 °F 66.9 °F 87% 30.09 in 10.0 mi Calm Calm - N/A   Partly Cloudy
9:54 PM 69.1 °F 66.0 °F 90% 30.10 in 10.0 mi Calm Calm - N/A   Partly Cloudy
10:54 PM 68.0 °F 66.0 °F 93% 30.11 in 10.0 mi North 3.5 mph - N/A   Partly Cloudy
11:54 PM 68.0 °F 66.0 °F 93% 30.09 in 10.0 mi Calm Calm - N/A   Partly Cloudy